Regional Weather Roundup
Issued by NWS Northern Indiana

Home | Current Version | Previous Version | Graphics & Text | Print | Product List | Glossary On
Versions: 1 2 3 4 5 6 7 8 9 10 11 12 13 14 15 16 17 18 19 20 21 22 23 24 25 26 27 28 29 30 31 32 33 34 35 36 37 38 39 40 41 42 43 44 45 46 47 48 49 50
000
ASUS43 KIWX 272110
RWRIWX

KIWX WEATHER ROUNDUP
NATIONAL WEATHER SERVICE NORTHERN INDIANA
500 PM EDT THU APR 27 2017

NOTE: "FAIR" INDICATES FEW OR NO CLOUDS BELOW 12,000 FEET WITH NO
SIGNIFICANT WEATHER AND/OR OBSTRUCTIONS TO VISIBILITY.

* THESE STATIONS ARE NOT UNDER NWS QUALITY CONTROL. THEY ALSO MAY NOT
  REPORT WEATHER SUCH AS PRECIPITATION OR FOG.

INZ001>027-272200-
NORTHERN INDIANA

CITY           SKY/WX    TMP DP  RH WIND       PRES   REMARKS
GARY*          CLOUDY    48  37  66 W17G32    29.72R
VALPARAISO     CLOUDY    49  40  71 SW16      29.72R
MICHIGAN CITY* CLOUDY    46  37  71 SW14G22   29.72R
LAPORTE*       CLOUDY    47  40  76 W14G24    29.72R
KNOX*          CLOUDY    46  23  39 W16       29.72R
SOUTH BEND     CLOUDY    47  39  74 SW20      29.71R
ELKHART*       CLOUDY    48  39  71 W17G23    29.71R
GOSHEN         CLOUDY    50  39  66 SW15      29.71R
MONTICELLO*    CLOUDY    50  44  81 SW14G21   29.74R
LOGANSPORT*    CLOUDY    50  43  76 W17G23    29.76R
ROCHESTER*     CLOUDY    52  41  66 W16G25    29.74R
WARSAW*        CLOUDY    50  39  66 W15G22    29.72R
ANGOLA*        CLOUDY    52  45  76 SW14      29.69R
FORT WAYNE     CLOUDY    52  43  71 SW17G26   29.73R
HUNTINGTON*    CLOUDY    51  43  75 W13G20    29.74R
PERU/GRISSOM   CLOUDY    51  44  78 W16       29.73R
MARION*        CLOUDY    52  45  76 W17       29.76R

$$
INZ028>050-272200-
CENTRAL INDIANA

CITY           SKY/WX    TMP DP  RH WIND       PRES   REMARKS
LAFAYETTE      CLOUDY    50  44  80 W12G21    29.75R
KOKOMO*        CLOUDY    52  44  74 W18G26    29.76R
MUNCIE*        CLOUDY    57  43  59 W18G25    29.75R
INDIANAPOLIS   CLOUDY    55  45  68 W16G23    29.77R

$$
MIZ043>046-050>051-056>058-064>065-071>073-077>080-272200-
SOUTHWEST LOWER MICHIGAN

CITY           SKY/WX    TMP DP  RH WIND       PRES   REMARKS
BATTLE CREEK   CLOUDY    51  43  74 SW21      29.65R
BENTON HARBOR  CLOUDY    48  38  68 SW18G25   29.69R
COLDWATER*     CLOUDY    52  42  70 SW17G24   29.67R
HILLSDALE*     CLOUDY    52  43  71 SW9G23    29.66R
HOLLAND        CLOUDY    47  39  74 W21G31    29.68R
GRAND RAPIDS   CLOUDY    48  41  76 SW21G32   29.64R
KALAMAZOO      CLOUDY    49  39  68 W12       29.68R
STURGIS*       CLOUDY    50  41  71 W16G24    29.68R
THREE RIVERS*  CLOUDY    49  39  67 SW16      29.69R

$$
OHZ001>008-015>018-024>025-272200-
NORTHWEST OHIO

CITY           SKY/WX    TMP DP  RH WIND       PRES   REMARKS
WAUSEON*       PTSUNNY   57  45  62 SW23      29.67R
DEFIANCE       CLOUDY    55  43  63 SW13G24   29.70R
FINDLAY        MOSUNNY   64  45  49 W29       29.67R
TOLEDO EXPRESS PTSUNNY   60  45  57 W29G35    29.65R
TOLEDO METCALF MOSUNNY   64  47  53 SW21G36   29.64R
LIMA           PTSUNNY   63  48  58 W24G30    29.70R

$$
AND FOR LAKE MICHIGAN COASTAL AND OPEN LAKE BUOY OBSERVATIONS

STATION/POSITION TEMP    WIND        PRES    VSBY  WAVE
                 AIR SEA DIR/SP/G                  HT/PER
                 (F)     (DEG/KT/KT) (MB)    (MI)  (FT/S)
CALUMET HARBOR    47     230/  9/ 15 1005.4R
MICHIGAN CITY     47     200/ 20/ 25   N/A
BURNS HARBOR      48     220/ 15/ 21 1006.4R
SOUTH LAKE BUOY   43 41  260/ 12/ 16 1003.8          4/ 5
4 MI NW BRIDGMAN  45 48  250/ 16/ 19 1006.5          4/ 5
MICHIGAN CITY     46 47                N/A           4/ 4

$$
&&




USA.gov is the U.S. government's official web portal to all federal, state and local government web resources and services.